Lid_Strength_Index
12 12 14 13 12 12 13 14 15 15 13 15 15 15 13 12 12 12 10 9 8 8 6 7 7 8 8 7 7 7 7 7 7 8 8 9 9 9 9 10 10 10 10 10
13 15 12 12 12 13 14 15 16 14 14 14 16 15 13 11 11 10 10 10 9 8 8 8 8 7 8 7 7 7 6 7 7 7 8 8 8 9 9 10 11 12 11 10
15 14 12 14 15 15 16 16 16 16 15 15 16 17 15 14 13 12 11 11 11 10 10 9 8 8 8 7 7 7 7 6 6 6 7 8 9 10 10 10 11 12 12 11
15 13 14 15 15 16 17 15 15 15 17 19 16 21 17 15 14 13 12 11 11 10 10 9 9 9 8 7 7 7 7 7 6 6 6 7 8 9 9 10 11 12 12 12
15 15 15 15 15 14 16 14 15 16 17 18 18 19 16 15 15 12 11 10 10 10 10 10 9 8 8 8 8 8 7 7 6 6 6 7 7 7 7 10 11 12 13 12
14 13 13 14 13 13 13 15 16 17 18 22 19 19 18 16 14 12 12 11 11 11 10 10 9 9 9 9 9 8 8 8 7 7 6 6 6 7 9 11 12 12 13 12
13 14 12 12 13 12 13 16 21 23 22 22 17 18 16 14 12 12 12 12 11 11 11 10 10 10 9 10 9 9 9 8 8 8 7 6 6 6 8 9 11 12 13 13
16 18 14 12 13 14 15 16 20 24 23 21 17 19 16 13 13 13 13 12 12 12 12 11 10 10 10 10 10 9 9 9 9 9 9 8 7 6 7 8 10 11 12 12
17 17 14 13 12 13 15 16 15 18 21 21 20 17 15 14 14 14 14 13 13 13 12 11 11 10 10 10 10 10 10 10 10 9 9 9 9 8 8 9 9 11 12 13
15 18 16 14 13 13 14 13 17 18 25 25 21 19 18 16 14 14 13 13 12 12 11 11 11 10 10 11 11 10 10 10 10 10 10 10 10 10 9 9 10 11 11 13
14 16 17 14 15 15 14 15 15 15 16 20 23 21 17 16 15 14 13 12 12 11 10 10 10 10 11 11 11 11 11 11 10 10 10 10 10 11 10 10 10 10 11 13
14 15 18 17 14 13 13 14 14 17 19 18 18 19 14 13 13 13 12 12 12 12 11 11 10 11 11 11 11 11 11 11 10 10 10 10 11 11 11 11 11 11 12 13
13 18 23 19 16 14 15 14 13 14 15 17 18 18 13 13 11 10 11 11 11 11 11 11 12 11 11 11 11 11 11 10 10 11 11 11 11 11 11 12 12 12 13 13
10 15 17 19 17 15 15 14 14 14 16 15 15 14 12 11 11 11 11 11 11 11 11 12 11 12 12 11 11 11 11 11 10 11 10 10 10 11 10 11 12 12 13 14
12 17 16 15 14 14 14 14 14 14 14 16 15 15 12 11 11 10 11 11 11 12 11 11 11 11 11 11 10 11 11 11 11 12 12 11 10 11 11 12 12 13 13 14
13 18 14 16 14 15 17 14 14 13 13 14 14 14 10 10 11 12 12 12 12 12 12 12 12 12 12 11 10 10 10 10 11 11 11 11 11 12 12 12 13 13 14 14
15 17 20 23 18 20 23 17 15 14 14 14 16 12 11 12 11 12 11 12 12 12 12 12 12 11 11 10 10 9 9 9 10 11 11 11 12 12 13 13 13 13 13 14
15 21 19 22 24 29 18 16 16 16 15 14 13 12 12 12 12 12 12 12 12 11 13 12 12 11 10 10 10 9 10 10 11 11 11 11 12 12 13 14 14 14 14 14
15 17 24 26 30 22 18 16 17 17 17 14 14 14 13 13 14 14 12 11 11 12 12 11 11 10 10 10 9 10 11 11 11 11 11 11 11 12 13 13 14 14 14 15
15 13 19 29 30 29 19 17 16 16 21 15 15 14 15 15 17 16 13 11 12 12 12 11 10 10 10 10 10 11 11 11 11 10 11 11 11 11 12 13 13 13 14 14
19 17 18 23 27 24 17 16 16 24 19 15 14 14 14 14 13 13 13 13 13 12 11 11 11 11 10 10 10 11 11 11 10 10 11 11 11 11 11 12 13 14 14 14
24 24 23 24 26 26 16 17 19 16 15 14 14 13 13 13 13 13 13 13 13 13 12 11 11 11 10 10 11 11 11 10 10 11 12 12 12 12 12 12 13 13 13 15
24 23 23 21 20 17 16 15 13 15 15 14 14 13 13 13 14 13 13 13 12 12 12 11 11 11 10 10 10 11 10 10 11 12 13 13 14 13 13 14 14 14 13 14
25 27 23 21 18 17 18 15 15 14 14 13 13 13 14 14 14 14 13 13 12 12 12 11 11 11 12 11 11 10 10 10 12 13 13 13 15 14 14 13 13 14 14 14
23 22 22 22 18 17 18 16 14 14 14 14 14 14 14 14 14 13 13 13 12 11 11 11 11 12 11 11 11 11 11 12 13 13 13 13 14 15 14 14 14 14 13 13
21 20 19 19 16 16 16 15 14 15 15 14 15 15 14 14 14 13 13 12 12 11 11 11 11 11 11 11 11 11 11 14 13 13 13 13 13 14 15 15 15 12 11 11